| time (UTC) | temp F | wind direction | speed MPH | gust MPH | rain 1hr in | rain 24hr in | rain mn in | humidity % | barometer mb |
| 20260509021911 | 45 | 135 | 6.0 | 13.0 | 0.00 | 0.00 | 0.00 | 71 | 943.8 |
| 20260509021401 | 45 | 180 | 6.0 | 14.0 | 0.00 | 0.00 | 0.00 | 68 | 943.8 |
| 20260509020850 | 45 | 113 | 4.0 | 15.0 | 0.00 | 0.00 | 0.00 | 67 | 943.7 |
| 20260509020604 | 46 | 113 | 11.0 | 17.0 | 0.00 | 0.00 | 0.00 | 64 | 943.4 |
| 20260509015830 | 47 | 113 | 11.0 | 17.0 | 0.00 | 0.00 | 0.00 | 62 | 943.6 |
| 20260509015321 | 48 | 135 | 12.0 | 16.0 | 0.00 | 0.00 | 0.00 | 59 | 943.6 |
| 20260509014810 | 49 | 135 | 7.0 | 9.0 | 0.00 | 0.00 | 0.00 | 56 | 943.4 |
| 20260509014300 | 49 | 135 | 6.0 | 9.0 | 0.00 | 0.00 | 0.00 | 57 | 942.8 |
| 20260509013750 | 49 | 158 | 4.0 | 9.0 | 0.00 | 0.00 | 0.00 | 58 | 942.5 |
| 20260509013240 | 49 | 135 | 7.0 | 9.0 | 0.00 | 0.00 | 0.00 | 55 | 942.3 |
| 20260509012730 | 49 | 135 | 5.0 | 8.0 | 0.00 | 0.00 | 0.00 | 56 | 942.4 |
| 20260509012219 | 49 | 113 | 4.0 | 8.0 | 0.00 | 0.00 | 0.00 | 56 | 942.3 |
| 20260509011709 | 49 | 135 | 5.0 | 9.0 | 0.00 | 0.00 | 0.00 | 55 | 942.3 |
| 20260509011200 | 49 | 158 | 5.0 | 11.0 | 0.00 | 0.00 | 0.00 | 55 | 942.1 |
| 20260509010911 | 49 | 135 | 7.0 | 11.0 | 0.00 | 0.00 | 0.00 | 55 | 941.6 |
| 20260509010139 | 49 | 135 | 7.0 | 11.0 | 0.00 | 0.00 | 0.00 | 56 | 941.6 |
| 20260509005851 | 50 | 113 | 7.0 | 13.0 | 0.00 | 0.00 | 0.00 | 54 | 941.4 |
| 20260509005119 | 49 | 113 | 8.0 | 13.0 | 0.00 | 0.00 | 0.00 | 54 | 941.4 |
| 20260509004609 | 50 | 135 | 7.0 | 16.0 | 0.00 | 0.00 | 0.00 | 54 | 941.2 |
| 20260509004059 | 50 | 90 | 4.0 | 16.0 | 0.00 | 0.00 | 0.00 | 53 | 941.2 |
| 20260509003549 | 51 | 113 | 11.0 | 15.0 | 0.00 | 0.00 | 0.00 | 52 | 941.1 |
| 20260509003039 | 53 | 113 | 2.0 | 7.0 | 0.00 | 0.00 | 0.00 | 52 | 940.5 |
| 20260509002528 | 53 | 113 | 2.0 | 7.0 | 0.00 | 0.00 | 0.00 | 50 | 940.3 |
| 20260509002019 | 53 | 68 | 4.0 | 8.0 | 0.00 | 0.00 | 0.00 | 48 | 940.2 |
| 20260509001509 | 53 | 90 | 2.0 | 9.0 | 0.00 | 0.00 | 0.00 | 50 | 939.8 |
| 20260509000959 | 53 | 90 | 6.0 | 11.0 | 0.00 | 0.00 | 0.00 | 49 | 939.8 |
| 20260509000449 | 53 | 90 | 6.0 | 11.0 | 0.00 | 0.00 | 0.00 | 48 | 939.5 |
| 20260508235937 | 54 | 68 | 5.0 | 9.0 | 0.00 | 0.00 | 0.00 | 47 | 939.4 |
| 20260508235429 | 54 | 113 | 4.0 | 8.0 | 0.00 | 0.00 | 0.00 | 46 | 939.0 |
| 20260508234918 | 55 | 90 | 4.0 | 11.0 | 0.00 | 0.00 | 0.00 | 50 | 938.9 |
| 20260508234408 | 55 | 90 | 3.0 | 11.0 | 0.00 | 0.00 | 0.00 | 47 | 938.5 |
| 20260508233858 | 56 | 68 | 5.0 | 11.0 | 0.00 | 0.00 | 0.00 | 45 | 938.2 |
| 20260508233347 | 56 | 0 | 8.0 | 11.0 | 0.00 | 0.00 | 0.00 | 49 | 938.3 |
| 20260508232837 | 55 | 68 | 4.0 | 11.0 | 0.00 | 0.00 | 0.00 | 45 | 938.1 |
| 20260508232327 | 55 | 68 | 3.0 | 7.0 | 0.00 | 0.00 | 0.00 | 44 | 938.1 |
| 20260508231817 | 55 | 90 | 2.0 | 11.0 | 0.00 | 0.00 | 0.00 | 44 | 938.0 |
| 20260508231307 | 56 | 68 | 8.0 | 15.0 | 0.00 | 0.00 | 0.00 | 44 | 937.7 |
| 20260508230757 | 56 | 45 | 6.0 | 15.0 | 0.00 | 0.00 | 0.00 | 47 | 937.7 |
| 20260508230729 | 56 | 68 | 9.0 | 15.0 | 0.00 | 0.00 | 0.00 | 46 | 937.6 |
| 20260508225737 | 56 | 68 | 12.0 | 16.0 | 0.00 | 0.00 | 0.00 | 42 | 937.4 |
| 20260508225226 | 57 | 45 | 11.0 | 16.0 | 0.00 | 0.00 | 0.00 | 47 | 937.4 |
| 20260508224716 | 57 | 23 | 13.0 | 18.0 | 0.00 | 0.00 | 0.00 | 51 | 937.2 |
| 20260508224427 | 57 | 23 | 12.0 | 18.0 | 0.00 | 0.00 | 0.00 | 44 | 937.3 |
| 20260508223656 | 56 | 23 | 8.0 | 18.0 | 0.00 | 0.00 | 0.00 | 44 | 937.3 |
| 20260508223412 | 57 | 68 | 8.0 | 18.0 | 0.00 | 0.00 | 0.00 | 43 | 937.3 |
| 20260508222636 | 56 | 45 | 8.0 | 14.0 | 0.00 | 0.00 | 0.00 | 41 | 937.2 |
| 20260508222126 | 56 | 45 | 6.0 | 13.0 | 0.00 | 0.00 | 0.00 | 41 | 937.3 |
| 20260508221836 | 56 | 113 | 6.0 | 11.0 | 0.00 | 0.00 | 0.00 | 41 | 937.2 |
| 20260508221547 | 56 | 113 | 4.0 | 11.0 | 0.00 | 0.00 | 0.00 | 41 | 937.2 |
| 20260508220602 | 56 | 68 | 8.0 | 11.0 | 0.00 | 0.00 | 0.00 | 41 | 936.9 |
| 20260508220046 | 57 | 90 | 5.0 | 11.0 | 0.00 | 0.00 | 0.00 | 41 | 936.9 |
| 20260508215535 | 57 | 90 | 6.0 | 11.0 | 0.00 | 0.00 | 0.00 | 41 | 936.8 |
| 20260508215024 | 57 | 90 | 3.0 | 9.0 | 0.00 | 0.00 | 0.00 | 41 | 936.7 |
| 20260508214515 | 57 | 113 | 5.0 | 14.0 | 0.00 | 0.00 | 0.00 | 41 | 936.4 |
| 20260508214005 | 58 | 113 | 4.0 | 14.0 | 0.00 | 0.00 | 0.00 | 40 | 936.5 |
| 20260508213455 | 58 | 68 | 6.0 | 9.0 | 0.00 | 0.00 | 0.00 | 39 | 936.6 |
| 20260508212945 | 58 | 68 | 5.0 | 13.0 | 0.00 | 0.00 | 0.00 | 39 | 936.5 |
| 20260508212435 | 58 | 90 | 4.0 | 13.0 | 0.00 | 0.00 | 0.00 | 43 | 936.5 |
| 20260508211924 | 59 | 45 | 4.0 | 16.0 | 0.00 | 0.00 | 0.00 | 40 | 936.4 |
| 20260508211414 | 59 | 45 | 6.0 | 16.0 | 0.00 | 0.00 | 0.00 | 40 | 936.5 |
| 20260508210904 | 59 | 45 | 4.0 | 14.0 | 0.00 | 0.00 | 0.00 | 40 | 936.5 |
| 20260508210354 | 60 | 68 | 7.0 | 13.0 | 0.00 | 0.00 | 0.00 | 38 | 936.5 |
| 20260508205844 | 60 | 45 | 4.0 | 17.0 | 0.00 | 0.00 | 0.00 | 39 | 936.6 |
| 20260508205334 | 60 | 45 | 12.0 | 17.0 | 0.00 | 0.00 | 0.00 | 38 | 936.7 |
| 20260508205047 | 60 | 68 | 13.0 | 17.0 | 0.00 | 0.00 | 0.00 | 38 | 936.6 |
| 20260508204313 | 60 | 68 | 11.0 | 16.0 | 0.00 | 0.00 | 0.00 | 39 | 936.7 |
| 20260508203804 | 60 | 45 | 13.0 | 17.0 | 0.00 | 0.00 | 0.00 | 37 | 936.4 |
| 20260508203516 | 60 | 45 | 7.0 | 17.0 | 0.00 | 0.00 | 0.00 | 37 | 936.5 |
| 20260508202743 | 60 | 45 | 14.0 | 17.0 | 0.00 | 0.00 | 0.00 | 36 | 936.4 |
| 20260508202233 | 60 | 23 | 10.0 | 15.0 | 0.00 | 0.00 | 0.00 | 35 | 936.7 |
| 20260508201724 | 61 | 68 | 10.0 | 17.0 | 0.00 | 0.00 | 0.00 | 37 | 936.6 |
| 20260508201213 | 61 | 45 | 10.0 | 17.0 | 0.00 | 0.00 | 0.00 | 35 | 936.5 |
| 20260508200703 | 60 | 45 | 11.0 | 16.0 | 0.00 | 0.00 | 0.00 | 35 | 936.4 |
| 20260508200414 | 61 | 45 | 11.0 | 16.0 | 0.00 | 0.00 | 0.00 | 37 | 936.4 |
| 20260508195643 | 61 | 45 | 6.0 | 16.0 | 0.00 | 0.00 | 0.00 | 36 | 936.3 |
| 20260508195133 | 61 | 45 | 11.0 | 16.0 | 0.00 | 0.00 | 0.00 | 35 | 936.2 |
| 20260508194622 | 61 | 45 | 8.0 | 16.0 | 0.00 | 0.00 | 0.00 | 37 | 936.3 |
| 20260508194112 | 61 | 45 | 9.0 | 16.0 | 0.00 | 0.00 | 0.00 | 34 | 936.2 |
| 20260508193602 | 62 | 45 | 8.0 | 14.0 | 0.00 | 0.00 | 0.00 | 36 | 936.4 |
| 20260508193052 | 62 | 45 | 6.0 | 11.0 | 0.00 | 0.00 | 0.00 | 35 | 936.4 |
| 20260508192542 | 62 | 113 | 6.0 | 14.0 | 0.00 | 0.00 | 0.00 | 36 | 936.3 |
| 20260508192031 | 62 | 45 | 5.0 | 14.0 | 0.00 | 0.00 | 0.00 | 36 | 936.2 |
| 20260508191522 | 62 | 68 | 5.0 | 11.0 | 0.00 | 0.00 | 0.00 | 35 | 936.5 |
| 20260508191011 | 62 | 23 | 6.0 | 11.0 | 0.00 | 0.00 | 0.00 | 35 | 936.3 |
| 20260508190724 | 62 | 68 | 7.0 | 14.0 | 0.00 | 0.00 | 0.00 | 35 | 936.5 |
| 20260508185952 | 62 | 45 | 6.0 | 14.0 | 0.00 | 0.00 | 0.00 | 36 | 936.4 |
| 20260508185441 | 62 | 68 | 8.0 | 14.0 | 0.00 | 0.00 | 0.00 | 35 | 936.2 |
| 20260508185158 | 62 | 45 | 9.0 | 17.0 | 0.00 | 0.00 | 0.00 | 34 | 936.3 |
| 20260508184421 | 61 | 45 | 9.0 | 17.0 | 0.00 | 0.00 | 0.00 | 36 | 936.6 |
| 20260508184140 | 62 | 68 | 7.0 | 16.0 | 0.00 | 0.00 | 0.00 | 37 | 936.6 |
| 20260508183401 | 61 | 68 | 11.0 | 14.0 | 0.00 | 0.00 | 0.00 | 34 | 936.5 |
| 20260508182850 | 61 | 68 | 9.0 | 14.0 | 0.00 | 0.00 | 0.00 | 34 | 936.5 |
| 20260508182340 | 62 | 68 | 8.0 | 17.0 | 0.00 | 0.00 | 0.00 | 34 | 936.7 |
| 20260508181832 | 61 | 90 | 8.0 | 17.0 | 0.00 | 0.00 | 0.00 | 34 | 936.9 |
| 20260508181320 | 61 | 113 | 8.0 | 21.0 | 0.00 | 0.00 | 0.00 | 36 | 936.8 |
| 20260508180810 | 62 | 113 | 7.0 | 21.0 | 0.00 | 0.00 | 0.00 | 33 | 936.8 |
| 20260508180300 | 62 | 90 | 7.0 | 17.0 | 0.00 | 0.00 | 0.00 | 35 | 937.0 |
| 20260508180213 | 61 | 45 | 12.0 | 17.0 | 0.00 | 0.00 | 0.00 | 35 | 936.9 |
| 20260508180159 | 61 | 68 | 6.0 | 20.0 | 0.00 | 0.00 | 0.00 | 35 | 937.1 |
| 20260508174729 | 61 | 45 | 8.0 | 20.0 | 0.00 | 0.00 | 0.00 | 34 | 937.2 |
| 20260508174440 | 61 | 90 | 11.0 | 16.0 | 0.00 | 0.00 | 0.00 | 36 | 937.3 |
| 20260508173709 | 61 | 45 | 11.0 | 17.0 | 0.00 | 0.00 | 0.00 | 34 | 937.3 |
| 20260508173159 | 61 | 68 | 8.0 | 17.0 | 0.00 | 0.00 | 0.00 | 35 | 937.4 |
| 20260508172649 | 61 | 45 | 10.0 | 17.0 | 0.00 | 0.00 | 0.00 | 35 | 937.7 |
| 20260508172139 | 61 | 90 | 11.0 | 17.0 | 0.00 | 0.00 | 0.00 | 35 | 937.6 |
| 20260508171629 | 61 | 45 | 11.0 | 17.0 | 0.00 | 0.00 | 0.00 | 37 | 937.5 |
| 20260508171119 | 61 | 45 | 8.0 | 17.0 | 0.00 | 0.00 | 0.00 | 37 | 937.8 |
| 20260508170832 | 60 | 45 | 8.0 | 17.0 | 0.00 | 0.00 | 0.00 | 34 | 938.0 |
| 20260508170539 | 60 | 45 | 13.0 | 17.0 | 0.00 | 0.00 | 0.00 | 37 | 938.1 |
| 20260508165549 | 60 | 45 | 11.0 | 14.0 | 0.00 | 0.00 | 0.00 | 35 | 938.2 |
| 20260508165039 | 61 | 45 | 8.0 | 14.0 | 0.00 | 0.00 | 0.00 | 38 | 938.4 |
| 20260508164752 | 60 | 45 | 11.0 | 15.0 | 0.00 | 0.00 | 0.00 | 37 | 938.5 |
| 20260508164242 | 60 | 23 | 11.0 | 15.0 | 0.00 | 0.00 | 0.00 | 34 | 938.8 |
| 20260508163508 | 60 | 45 | 12.0 | 15.0 | 0.00 | 0.00 | 0.00 | 35 | 938.8 |
| 20260508162958 | 60 | 23 | 13.0 | 15.0 | 0.00 | 0.00 | 0.00 | 37 | 938.8 |
| 20260508162448 | 60 | 45 | 10.0 | 15.0 | 0.00 | 0.00 | 0.00 | 34 | 939.0 |
| 20260508161938 | 61 | 45 | 11.0 | 15.0 | 0.00 | 0.00 | 0.00 | 38 | 938.9 |
| 20260508161648 | 60 | 45 | 10.0 | 11.0 | 0.00 | 0.00 | 0.00 | 33 | 939.2 |
| 20260508160918 | 61 | 0 | 1.0 | 4.0 | 0.00 | 0.00 | 0.00 | 38 | 939.1 |
| 20260508160634 | 60 | 315 | 3.0 | 4.0 | 0.00 | 0.00 | 0.00 | 35 | 939.3 |
| 20260508155858 | 60 | 315 | 2.0 | 4.0 | 0.00 | 0.00 | 0.00 | 33 | 939.6 |
| 20260508155347 | 60 | 225 | 0.0 | 2.0 | 0.00 | 0.00 | 0.00 | 39 | 939.6 |
| 20260508154837 | 59 | 225 | 0.0 | 4.0 | 0.00 | 0.00 | 0.00 | 36 | 939.7 |
| 20260508154327 | 57 | 225 | 2.0 | 4.0 | 0.00 | 0.00 | 0.00 | 36 | 939.7 |
| 20260508153817 | 57 | 225 | 2.0 | 4.0 | 0.00 | 0.00 | 0.00 | 38 | 939.8 |
| 20260508153307 | 57 | 248 | 2.0 | 4.0 | 0.00 | 0.00 | 0.00 | 37 | 939.7 |
| 20260508152757 | 56 | 293 | 2.0 | 4.0 | 0.00 | 0.00 | 0.00 | 37 | 940.0 |
| 20260508152248 | 56 | 270 | 2.0 | 2.0 | 0.00 | 0.00 | 0.00 | 40 | 940.1 |
| 20260508152224 | 56 | 248 | 2.0 | 2.0 | 0.00 | 0.00 | 0.00 | 37 | 940.1 |
| 20260508151226 | 57 | 315 | 2.0 | 2.0 | 0.00 | 0.00 | 0.00 | 35 | 940.1 |
| 20260508150716 | 58 | 338 | 2.0 | 4.0 | 0.00 | 0.00 | 0.00 | 32 | 940.3 |
| 20260508150432 | 58 | 0 | 1.0 | 4.0 | 0.00 | 0.00 | 0.00 | 39 | 940.3 |
| 20260508145657 | 57 | 23 | 2.0 | 4.0 | 0.00 | 0.00 | 0.00 | 45 | 940.4 |
| 20260508145146 | 56 | 338 | 1.0 | 4.0 | 0.00 | 0.00 | 0.00 | 46 | 940.5 |
| 20260508144636 | 55 | 338 | 2.0 | 4.0 | 0.00 | 0.00 | 0.00 | 42 | 940.4 |
| 20260508144126 | 55 | 293 | 2.0 | 2.0 | 0.00 | 0.00 | 0.00 | 45 | 940.7 |
| 20260508143615 | 56 | 0 | 2.0 | 4.0 | 0.00 | 0.00 | 0.00 | 43 | 941.0 |
| 20260508143106 | 58 | 45 | 1.0 | 4.0 | 0.00 | 0.00 | 0.00 | 38 | 940.9 |
| 20260508142555 | 56 | 23 | 1.0 | 4.0 | 0.00 | 0.00 | 0.00 | 41 | 941.1 |
| 20260508142045 | 58 | 68 | 0.0 | 2.0 | 0.00 | 0.00 | 0.00 | 46 | 940.8 |
| 20260508141535 | 58 | 90 | 0.0 | 2.0 | 0.00 | 0.00 | 0.00 | 44 | 941.1 |
| 20260508141025 | 55 | 23 | 0.0 | 2.0 | 0.00 | 0.00 | 0.00 | 49 | 941.0 |
| 20260508140514 | 53 | 23 | 1.0 | 2.0 | 0.00 | 0.00 | 0.00 | 46 | 941.0 |
| 20260508140005 | 53 | 0 | 1.0 | 2.0 | 0.00 | 0.00 | 0.00 | 46 | 940.8 |
| 20260508135455 | 53 | 0 | 2.0 | 2.0 | 0.00 | 0.00 | 0.00 | 47 | 941.1 |
| 20260508135435 | 53 | 0 | 1.0 | 2.0 | 0.00 | 0.00 | 0.00 | 46 | 941.2 |
| 20260508134654 | 53 | 45 | 1.0 | 2.0 | 0.00 | 0.00 | 0.00 | 47 | 941.1 |
| 20260508134144 | 50 | 135 | 2.0 | 4.0 | 0.00 | 0.00 | 0.00 | 51 | 941.2 |
| 20260508133414 | 51 | 23 | 2.0 | 4.0 | 0.00 | 0.00 | 0.00 | 52 | 941.0 |
| 20260508132904 | 50 | 23 | 2.0 | 8.0 | 0.00 | 0.00 | 0.00 | 52 | 941.3 |
| 20260508132354 | 48 | 0 | 3.0 | 8.0 | 0.00 | 0.00 | 0.00 | 55 | 941.3 |
| 20260508131844 | 48 | 0 | 4.0 | 6.0 | 0.00 | 0.00 | 0.00 | 61 | 941.3 |
| 20260508131334 | 48 | 68 | 3.0 | 6.0 | 0.00 | 0.00 | 0.00 | 58 | 941.6 |
| 20260508130824 | 46 | 23 | 4.0 | 6.0 | 0.00 | 0.00 | 0.00 | 61 | 941.4 |
| 20260508130314 | 46 | 23 | 3.0 | 6.0 | 0.00 | 0.00 | 0.00 | 59 | 941.2 |
| 20260508130023 | 46 | 45 | 4.0 | 4.0 | 0.00 | 0.00 | 0.00 | 59 | 941.3 |
| 20260508125253 | 49 | 68 | 2.0 | 4.0 | 0.00 | 0.00 | 0.00 | 56 | 941.5 |
| 20260508124743 | 46 | 68 | 2.0 | 4.0 | 0.00 | 0.00 | 0.00 | 60 | 941.5 |
| 20260508124236 | 45 | 0 | 1.0 | 4.0 | 0.00 | 0.00 | 0.00 | 65 | 941.7 |
| 20260508123723 | 44 | 45 | 3.0 | 6.0 | 0.00 | 0.00 | 0.00 | 68 | 941.5 |
| 20260508123213 | 44 | 45 | 3.0 | 7.0 | 0.00 | 0.00 | 0.00 | 68 | 941.5 |
| 20260508122703 | 43 | 45 | 2.0 | 7.0 | 0.00 | 0.00 | 0.00 | 68 | 941.6 |
| 20260508122153 | 43 | 0 | 2.0 | 6.0 | 0.00 | 0.00 | 0.00 | 68 | 941.5 |
| 20260508121643 | 43 | 338 | 2.0 | 6.0 | 0.00 | 0.00 | 0.00 | 70 | 941.3 |
| 20260508121133 | 43 | 23 | 2.0 | 6.0 | 0.00 | 0.00 | 0.00 | 68 | 941.6 |
| 20260508120623 | 43 | 0 | 3.0 | 7.0 | 0.00 | 0.00 | 0.00 | 69 | 941.7 |
| 20260508120113 | 42 | 23 | 3.0 | 8.0 | 0.00 | 0.00 | 0.00 | 67 | 941.5 |
| 20260508115825 | 42 | 0 | 4.0 | 8.0 | 0.00 | 0.00 | 0.00 | 72 | 941.8 |
| 20260508115052 | 42 | 23 | 3.0 | 8.0 | 0.00 | 0.00 | 0.00 | 73 | 941.4 |
| 20260508114804 | 43 | 0 | 3.0 | 4.0 | 0.00 | 0.00 | 0.00 | 70 | 941.5 |
| 20260508114031 | 43 | 113 | 0.0 | 4.0 | 0.00 | 0.00 | 0.00 | 73 | 941.3 |
| 20260508113521 | 42 | 90 | 2.0 | 4.0 | 0.00 | 0.00 | 0.00 | 74 | 941.4 |
| 20260508113011 | 41 | 113 | 3.0 | 7.0 | 0.00 | 0.00 | 0.00 | 76 | 941.5 |
| 20260508112502 | 40 | 68 | 3.0 | 7.0 | 0.00 | 0.00 | 0.00 | 78 | 941.4 |
| 20260508112213 | 40 | 90 | 2.0 | 4.0 | 0.00 | 0.00 | 0.00 | 78 | 941.2 |
| 20260508111441 | 40 | 90 | 2.0 | 4.0 | 0.00 | 0.00 | 0.00 | 78 | 941.0 |
| 20260508110931 | 40 | 23 | 2.0 | 9.0 | 0.00 | 0.00 | 0.00 | 74 | 941.0 |
| 20260508110653 | 42 | 23 | 6.0 | 9.0 | 0.00 | 0.00 | 0.00 | 74 | 940.9 |
| 20260508105911 | 41 | 23 | 3.0 | 7.0 | 0.00 | 0.00 | 0.00 | 70 | 940.9 |
| 20260508105623 | 41 | 0 | 4.0 | 7.0 | 0.00 | 0.00 | 0.00 | 71 | 940.8 |
| 20260508104851 | 39 | 90 | 2.0 | 4.0 | 0.00 | 0.00 | 0.00 | 81 | 941.0 |
| 20260508104340 | 39 | 90 | 4.0 | 4.0 | 0.00 | 0.00 | 0.00 | 79 | 940.9 |
| 20260508103830 | 39 | 90 | 2.0 | 4.0 | 0.00 | 0.00 | 0.00 | 80 | 941.0 |
| 20260508103547 | 39 | 90 | 2.0 | 4.0 | 0.00 | 0.00 | 0.00 | 81 | 940.8 |
| 20260508102810 | 39 | 90 | 3.0 | 4.0 | 0.00 | 0.00 | 0.00 | 82 | 940.7 |
| 20260508102301 | 39 | 90 | 3.0 | 7.0 | 0.00 | 0.00 | 0.00 | 80 | 940.7 |
| 20260508101750 | 39 | 113 | 5.0 | 7.0 | 0.00 | 0.00 | 0.00 | 82 | 940.8 |
| 20260508101240 | 40 | 135 | 5.0 | 7.0 | 0.00 | 0.00 | 0.00 | 81 | 940.7 |
| 20260508100729 | 40 | 68 | 3.0 | 6.0 | 0.00 | 0.00 | 0.00 | 81 | 940.5 |
| 20260508100219 | 40 | 113 | 2.0 | 6.0 | 0.00 | 0.00 | 0.00 | 81 | 940.6 |
| 20260508095710 | 40 | 90 | 4.0 | 4.0 | 0.00 | 0.00 | 0.00 | 79 | 940.3 |
| 20260508095200 | 42 | 158 | 2.0 | 7.0 | 0.00 | 0.00 | 0.00 | 74 | 940.2 |
| 20260508094918 | 43 | 338 | 4.0 | 7.0 | 0.00 | 0.00 | 0.00 | 72 | 940.0 |
| 20260508094402 | 44 | 315 | 5.0 | 8.0 | 0.00 | 0.00 | 0.00 | 65 | 940.0 |
| 20260508093629 | 43 | 23 | 4.0 | 8.0 | 0.00 | 0.00 | 0.00 | 65 | 939.9 |
| 20260508093119 | 43 | 0 | 6.0 | 8.0 | 0.00 | 0.00 | 0.00 | 65 | 939.7 |
| 20260508092608 | 43 | 338 | 6.0 | 8.0 | 0.00 | 0.00 | 0.00 | 68 | 939.7 |
| 20260508092320 | 43 | 338 | 4.0 | 6.0 | 0.00 | 0.00 | 0.00 | 67 | 939.8 |
| 20260508091549 | 43 | 23 | 1.0 | 6.0 | 0.00 | 0.00 | 0.00 | 70 | 940.0 |
| 20260508091039 | 42 | 338 | 3.0 | 6.0 | 0.00 | 0.00 | 0.00 | 78 | 939.7 |
| 20260508090752 | 40 | 113 | 4.0 | 6.0 | 0.00 | 0.00 | 0.00 | 73 | 939.8 |
| 20260508090018 | 42 | 90 | 1.0 | 4.0 | 0.00 | 0.00 | 0.00 | 78 | 939.9 |
| 20260508085508 | 41 | 90 | 2.0 | 4.0 | 0.00 | 0.00 | 0.00 | 67 | 939.8 |
| 20260508084958 | 40 | 90 | 3.0 | 4.0 | 0.00 | 0.00 | 0.00 | 68 | 939.6 |
| 20260508084447 | 40 | 135 | 2.0 | 4.0 | 0.00 | 0.00 | 0.00 | 73 | 939.5 |
| 20260508083938 | 40 | 135 | 2.0 | 4.0 | 0.00 | 0.00 | 0.00 | 72 | 939.7 |
| 20260508083428 | 40 | 113 | 3.0 | 4.0 | 0.00 | 0.00 | 0.00 | 69 | 939.6 |
| 20260508082917 | 41 | 113 | 2.0 | 4.0 | 0.00 | 0.00 | 0.00 | 67 | 939.4 |
| 20260508082636 | 41 | 113 | 1.0 | 2.0 | 0.00 | 0.00 | 0.00 | 71 | 939.3 |
| 20260508081857 | 41 | 113 | 0.0 | 4.0 | 0.00 | 0.00 | 0.00 | 72 | 939.6 |
| 20260508081347 | 41 | 113 | 2.0 | 4.0 | 0.00 | 0.00 | 0.00 | 65 | 939.5 |
| 20260508080837 | 41 | 113 | 3.0 | 4.0 | 0.00 | 0.00 | 0.00 | 71 | 939.8 |
| 20260508080554 | 42 | 135 | 3.0 | 6.0 | 0.00 | 0.00 | 0.00 | 74 | 939.7 |
| 20260508075817 | 43 | 135 | 2.0 | 6.0 | 0.00 | 0.00 | 0.00 | 75 | 939.5 |
| 20260508075309 | 42 | 135 | 2.0 | 6.0 | 0.00 | 0.00 | 0.00 | 71 | 939.6 |
| 20260508074756 | 44 | 158 | 4.0 | 6.0 | 0.00 | 0.00 | 0.00 | 68 | 939.4 |
| 20260508074246 | 42 | 135 | 3.0 | 4.0 | 0.00 | 0.00 | 0.00 | 70 | 939.5 |
| 20260508073736 | 43 | 135 | 2.0 | 4.0 | 0.00 | 0.00 | 0.00 | 64 | 939.6 |
| 20260508073226 | 43 | 158 | 2.0 | 4.0 | 0.00 | 0.00 | 0.00 | 66 | 939.6 |
| 20260508072946 | 43 | 180 | 2.0 | 6.0 | 0.00 | 0.00 | 0.00 | 66 | 939.4 |
| 20260508072206 | 44 | 180 | 3.0 | 6.0 | 0.00 | 0.00 | 0.00 | 51 | 939.5 |
| 20260508071656 | 43 | 113 | 0.0 | 2.0 | 0.00 | 0.00 | 0.00 | 68 | 939.6 |
| 20260508071145 | 43 | 113 | 2.0 | 4.0 | 0.00 | 0.00 | 0.00 | 62 | 939.3 |
| 20260508070635 | 43 | 113 | 1.0 | 4.0 | 0.00 | 0.00 | 0.00 | 65 | 939.4 |
| 20260508070126 | 43 | 113 | 2.0 | 4.0 | 0.00 | 0.00 | 0.00 | 69 | 938.9 |
| 20260508065616 | 44 | 113 | 3.0 | 4.0 | 0.00 | 0.00 | 0.00 | 66 | 939.2 |
| 20260508065106 | 44 | 135 | 2.0 | 4.0 | 0.00 | 0.00 | 0.00 | 70 | 939.3 |
| 20260508064555 | 45 | 135 | 2.0 | 2.0 | 0.00 | 0.00 | 0.00 | 67 | 939.2 |
| 20260508064045 | 46 | 158 | 0.0 | 2.0 | 0.00 | 0.00 | 0.00 | 58 | 939.3 |
| 20260508063800 | 46 | 158 | 0.0 | 2.0 | 0.00 | 0.00 | 0.00 | 59 | 939.4 |
| 20260508063246 | 46 | 158 | 2.0 | 4.0 | 0.00 | 0.00 | 0.00 | 59 | 939.6 |
| 20260508062514 | 47 | 158 | 2.0 | 9.0 | 0.00 | 0.00 | 0.00 | 63 | 939.4 |
| 20260508062005 | 47 | 158 | 2.0 | 9.0 | 0.00 | 0.00 | 0.00 | 60 | 939.5 |
| 20260508061455 | 47 | 203 | 8.0 | 9.0 | 0.00 | 0.00 | 0.00 | 57 | 939.4 |
| 20260508061203 | 47 | 225 | 8.0 | 9.0 | 0.00 | 0.00 | 0.00 | 60 | 939.4 |
| 20260508060434 | 46 | 180 | 3.0 | 4.0 | 0.00 | 0.00 | 0.00 | 66 | 939.3 |
| 20260508055925 | 46 | 113 | 2.0 | 4.0 | 0.00 | 0.00 | 0.00 | 71 | 939.2 |
| 20260508055414 | 46 | 113 | 2.0 | 2.0 | 0.00 | 0.00 | 0.00 | 66 | 939.3 |
| 20260508054904 | 46 | 113 | 2.0 | 4.0 | 0.00 | 0.00 | 0.00 | 63 | 939.0 |
| 20260508054355 | 45 | 113 | 0.0 | 4.0 | 0.00 | 0.00 | 0.00 | 75 | 939.0 |
| 20260508053844 | 45 | 113 | 3.0 | 4.0 | 0.00 | 0.00 | 0.00 | 68 | 939.2 |
| 20260508053554 | 46 | 113 | 4.0 | 4.0 | 0.00 | 0.00 | 0.00 | 71 | 939.2 |
| 20260508052824 | 45 | 113 | 4.0 | 4.0 | 0.00 | 0.00 | 0.00 | 71 | 939.2 |
| 20260508052758 | 45 | 113 | 3.0 | 6.0 | 0.00 | 0.00 | 0.00 | 71 | 939.5 |
| 20260508051803 | 46 | 113 | 4.0 | 6.0 | 0.00 | 0.00 | 0.00 | 70 | 939.5 |
| 20260508051253 | 45 | 113 | 2.0 | 6.0 | 0.00 | 0.00 | 0.00 | 74 | 939.7 |
| 20260508050743 | 46 | 113 | 0.0 | 6.0 | 0.00 | 0.00 | 0.00 | 68 | 939.5 |
| 20260508050233 | 47 | 90 | 1.0 | 4.0 | 0.00 | 0.00 | 0.00 | 64 | 939.5 |
| 20260508045948 | 46 | 113 | 2.0 | 4.0 | 0.00 | 0.00 | 0.00 | 67 | 939.3 |
| 20260508045625 | 47 | 158 | 0.0 | 4.0 | 0.00 | 0.00 | 0.00 | 70 | 939.5 |
| 20260508045619 | 47 | 135 | 2.0 | 4.0 | 0.00 | 0.00 | 0.00 | 71 | 939.3 |
| 20260508044152 | 47 | 113 | 2.0 | 4.0 | 0.00 | 0.00 | 0.00 | 67 | 939.3 |
| 20260508043642 | 47 | 135 | 1.0 | 4.0 | 0.00 | 0.00 | 0.00 | 69 | 939.4 |
| 20260508043356 | 47 | 90 | 1.0 | 4.0 | 0.00 | 0.00 | 0.00 | 65 | 939.5 |
| 20260508042622 | 47 | 158 | 4.0 | 4.0 | 0.00 | 0.00 | 0.00 | 65 | 939.6 |
| 20260508042112 | 47 | 113 | 0.0 | 4.0 | 0.00 | 0.00 | 0.00 | 65 | 939.3 |
| 20260508041602 | 47 | 135 | 0.0 | 4.0 | 0.00 | 0.00 | 0.00 | 64 | 939.2 |
| 20260508041052 | 48 | 135 | 4.0 | 4.0 | 0.00 | 0.00 | 0.00 | 64 | 939.3 |
| 20260508040806 | 48 | 90 | 2.0 | 6.0 | 0.00 | 0.00 | 0.00 | 62 | 939.1 |
| 20260508040031 | 47 | 113 | 4.0 | 6.0 | 0.00 | 0.00 | 0.00 | 65 | 939.0 |
| 20260508035521 | 47 | 113 | 3.0 | 4.0 | 0.00 | 0.00 | 0.00 | 67 | 939.0 |
| 20260508035011 | 47 | 135 | 2.0 | 2.0 | 0.00 | 0.00 | 0.00 | 63 | 939.0 |
| 20260508034727 | 47 | 113 | 1.0 | 2.0 | 0.00 | 0.00 | 0.00 | 63 | 939.1 |
| 20260508033951 | 48 | 113 | 2.0 | 4.0 | 0.00 | 0.00 | 0.00 | 65 | 939.1 |
| 20260508033441 | 47 | 135 | 2.0 | 4.0 | 0.00 | 0.00 | 0.00 | 65 | 939.3 |
| 20260508033154 | 47 | 113 | 2.0 | 6.0 | 0.00 | 0.00 | 0.00 | 64 | 939.1 |
| 20260508032421 | 47 | 113 | 2.0 | 6.0 | 0.00 | 0.00 | 0.00 | 60 | 939.1 |
| 20260508031911 | 48 | 158 | 4.0 | 4.0 | 0.00 | 0.00 | 0.00 | 60 | 939.2 |
| 20260508031400 | 48 | 113 | 0.0 | 6.0 | 0.00 | 0.00 | 0.00 | 59 | 939.0 |
| 20260508030850 | 48 | 90 | 3.0 | 6.0 | 0.00 | 0.00 | 0.00 | 56 | 938.7 |
| 20260508030341 | 49 | 113 | 4.0 | 4.0 | 0.00 | 0.00 | 0.00 | 56 | 938.7 |
| 20260508025830 | 49 | 180 | 2.0 | 6.0 | 0.00 | 0.00 | 0.00 | 60 | 939.0 |
| 20260508025539 | 50 | 315 | 2.0 | 6.0 | 0.00 | 0.00 | 0.00 | 57 | 938.8 |
| 20260508024810 | 50 | 203 | 2.0 | 6.0 | 0.00 | 0.00 | 0.00 | 59 | 938.7 |
| 20260508024519 | 49 | 113 | 2.0 | 6.0 | 0.00 | 0.00 | 0.00 | 57 | 938.8 |
| 20260508023750 | 49 | 45 | 3.0 | 4.0 | 0.00 | 0.00 | 0.00 | 58 | 938.5 |
| 20260508023239 | 48 | 90 | 1.0 | 4.0 | 0.00 | 0.00 | 0.00 | 56 | 938.5 |
| 20260508022730 | 49 | 158 | 2.0 | 4.0 | 0.00 | 0.00 | 0.00 | 60 | 938.5 |